RH
13 13 14 14 14 15 16 16 17 17 18 18 17 17 16 16 22 33 45 49 45 40 37 35 33 35 41 49 52 48 40 31 28 29 30 33 34 30 28 33 41 50 59 59 51 42 28 13 11 16 16 12 12 17 20 19 18 18 15 12 10 10 10 12 14 16 14 11 10 10 9 7 8 9 9 8 9 11 15 19 23 26 27 29 30
14 13 13 14 14 14 15 15 16 17 18 19 20 21 21 21 21 25 36 49 55 50 44 41 37 37 43 50 57 61 61 58 55 56 57 59 64 64 58 54 54 53 56 59 58 48 30 17 19 27 27 21 20 24 24 21 18 15 12 9 9 10 9 8 8 10 11 11 11 11 9 7 7 7 7 6 6 8 12 16 21 26 29 32 34
15 15 15 15 15 15 15 16 17 17 18 18 20 21 23 26 27 28 32 45 61 64 56 49 45 41 41 44 49 55 62 67 71 75 78 77 78 85 88 86 84 79 73 69 64 52 43 40 41 47 52 44 38 38 33 25 19 15 12 9 9 11 10 9 8 9 10 10 11 9 8 8 8 7 7 6 6 7 8 10 14 19 24 29 35
16 16 16 16 16 17 17 18 18 19 20 20 20 20 23 26 31 37 43 56 74 83 77 62 54 52 51 52 57 60 61 63 63 64 75 86 90 95 97 96 99 99 96 92 87 83 81 73 60 63 77 72 58 48 36 26 20 15 14 12 11 11 10 9 9 10 11 11 10 9 9 7 7 8 8 8 7 7 8 8 10 12 14 17 24
17 17 18 18 18 18 18 19 19 20 21 22 23 22 23 25 29 37 52 76 95 99 96 85 72 67 68 72 78 82 80 76 68 59 62 73 84 95 97 97 101 98 97 98 98 101 101 97 80 73 86 86 65 47 33 23 18 15 14 13 12 11 11 11 10 10 11 11 11 10 9 8 8 8 8 9 9 9 9 10 11 11 11 11 12
21 21 21 20 20 20 20 20 20 21 22 24 25 25 25 25 28 32 46 79 102 102 101 101 94 86 85 90 96 99 99 96 90 79 71 64 64 72 78 89 101 101 100 100 101 103 104 108 95 78 86 83 59 44 36 27 22 20 19 18 18 17 17 15 13 12 11 10 11 10 9 9 9 8 8 9 9 9 10 10 12 12 12 12 10
22 22 22 22 21 21 22 23 23 23 23 24 25 27 28 27 28 29 34 59 87 99 101 102 102 100 98 99 101 101 101 100 101 96 90 80 70 63 59 66 78 84 85 83 89 101 105 105 96 86 86 70 50 46 40 33 31 31 33 33 31 30 28 24 22 21 17 13 11 10 10 9 8 8 8 8 8 9 10 10 12 13 13 12 11
23 23 23 23 23 24 24 25 25 25 23 24 25 27 29 31 32 32 32 43 66 90 100 99 99 102 104 104 103 103 102 100 102 103 99 95 90 81 73 68 67 69 72 70 78 96 104 103 101 96 80 56 46 49 44 39 42 46 49 47 42 39 37 34 32 31 28 22 16 12 11 10 9 9 8 8 9 9 10 11 12 12 13 12 12
29 28 28 28 28 28 28 28 27 26 25 25 27 27 28 30 32 33 34 40 55 77 95 100 100 100 101 102 102 103 102 100 102 103 101 100 100 98 95 90 83 77 75 76 83 95 101 99 95 85 69 55 49 49 47 49 59 65 62 56 53 49 46 43 39 35 34 32 26 20 15 13 12 11 10 9 9 9 10 11 13 14 13 13 12
35 35 35 35 33 32 32 30 27 25 24 24 26 29 31 33 35 37 38 39 44 55 71 84 92 99 102 100 100 102 102 100 101 102 101 100 100 100 100 100 99 93 88 85 84 88 92 89 83 75 67 64 56 49 53 63 75 81 73 66 64 58 54 51 45 39 37 35 34 31 25 20 18 16 15 13 12 11 11 11 13 15 15 14 13
38 38 36 34 31 30 29 26 24 23 22 21 22 25 30 35 38 41 44 44 40 37 41 49 59 73 91 99 98 99 102 101 100 101 100 100 100 101 101 100 100 101 99 97 92 89 88 85 84 82 76 71 63 54 62 81 92 90 83 79 75 67 58 53 50 45 39 35 34 34 32 29 26 24 22 19 16 14 12 12 12 14 16 15 14
37 35 32 28 25 24 23 21 20 19 18 19 22 24 26 29 31 32 35 38 37 34 33 39 44 48 67 94 102 98 100 101 100 100 100 100 100 99 100 100 100 100 100 100 100 97 96 94 94 93 88 81 72 60 66 91 103 99 92 86 84 80 65 53 51 46 40 36 32 32 33 31 30 30 28 26 22 18 16 14 12 13 14 15 16
35 30 25 22 21 21 20 19 17 18 24 28 28 26 23 21 20 18 19 20 23 26 28 41 62 68 69 86 99 99 100 101 100 101 100 100 101 100 100 100 99 100 100 100 100 99 101 101 99 100 99 94 87 74 73 92 104 106 101 88 84 87 75 59 51 45 41 36 31 29 29 28 29 29 29 28 27 24 21 18 15 14 14 15 22
31 24 20 19 20 20 18 19 26 38 47 47 39 33 30 28 25 22 21 20 19 19 18 25 54 84 92 90 91 93 96 99 100 100 99 95 93 97 99 100 100 99 99 100 100 100 100 101 100 101 101 100 99 94 91 97 101 104 104 96 92 92 83 67 54 45 41 38 35 30 24 25 27 27 27 27 27 27 25 23 20 17 16 15 19
22 19 17 19 19 19 24 37 54 65 65 59 50 48 49 47 45 43 42 42 38 32 26 20 26 51 72 76 70 67 75 88 96 99 100 86 70 74 87 95 100 100 99 99 99 100 100 100 101 100 100 99 100 101 100 101 101 101 102 100 97 94 88 77 62 50 43 41 40 33 26 24 24 25 27 26 26 28 27 27 25 22 21 18 16
16 16 16 18 21 31 52 70 77 74 67 63 60 60 61 60 61 63 62 61 58 51 46 38 28 28 36 39 34 30 37 54 70 83 94 85 64 63 79 93 99 100 101 100 98 100 100 100 100 100 100 100 99 101 101 100 101 100 101 99 93 88 88 86 75 56 45 46 44 38 32 27 25 25 25 25 27 28 30 30 30 27 24 24 21
15 16 19 24 36 60 84 87 81 76 70 67 68 69 72 74 76 79 81 81 79 75 68 59 50 44 40 36 29 23 20 24 33 47 67 77 70 64 71 85 97 100 101 101 100 100 100 100 100 99 100 100 100 100 100 101 100 97 97 95 88 81 81 91 89 65 47 49 47 42 39 34 31 28 23 23 26 29 33 34 34 33 29 27 24
17 20 27 40 62 86 95 87 81 81 77 73 74 75 76 80 83 85 87 91 95 93 85 75 68 63 59 56 51 45 38 30 26 29 40 53 58 56 57 68 85 92 94 95 96 98 101 100 101 101 100 101 101 101 100 100 100 97 93 90 87 82 81 92 99 79 54 49 46 43 45 44 38 33 26 22 21 26 34 37 39 38 31 29 27
22 28 43 64 86 97 93 88 88 85 81 81 81 80 80 84 88 89 89 92 98 98 92 86 81 77 75 74 72 68 61 52 43 37 34 35 35 35 36 41 52 59 61 63 68 80 92 97 100 101 99 98 98 101 102 100 100 99 97 94 89 83 80 86 98 91 66 52 49 44 43 46 44 37 30 23 20 24 32 41 44 39 34 32 31
32 49 71 87 97 95 89 92 96 94 92 92 90 88 87 87 88 91 92 95 99 98 93 88 84 81 80 80 80 76 71 65 59 51 43 38 35 33 31 30 31 32 33 34 40 53 70 82 89 93 94 93 90 92 96 99 101 100 100 98 90 80 74 75 86 96 83 64 59 52 41 42 47 41 33 27 26 30 41 49 44 40 42 43 45
50 77 96 100 98 92 88 92 98 100 102 101 99 95 91 89 89 90 92 96 100 98 92 85 79 76 76 77 77 76 74 68 62 58 51 46 43 40 37 34 31 28 27 27 30 36 46 56 63 67 72 76 78 80 84 89 95 100 101 100 92 80 71 67 72 89 94 77 67 65 50 42 46 45 41 41 40 44 55 54 42 44 57 57 63
69 94 104 103 102 98 92 91 94 98 101 101 100 99 95 92 91 90 93 98 101 100 95 87 80 76 75 74 73 73 74 70 64 60 55 51 48 45 41 38 35 33 30 26 24 24 26 29 33 37 40 43 49 57 63 70 78 89 98 102 99 89 78 69 62 73 89 84 76 75 65 56 56 50 47 54 57 57 61 56 44 47 60 65 73
80 100 106 103 105 105 99 96 96 97 100 99 98 98 95 91 88 88 93 99 102 102 100 94 87 85 83 79 75 72 69 68 65 62 59 58 56 54 52 49 47 46 44 39 33 27 22 20 19 19 20 21 24 28 35 45 55 67 83 95 101 99 92 79 65 64 80 89 89 86 74 68 67 56 55 70 74 68 67 65 57 49 50 61 72
90 103 105 103 104 105 102 101 100 100 101 100 98 97 93 88 86 86 90 97 101 102 100 95 90 88 87 82 78 74 69 68 70 71 74 76 75 73 72 72 71 68 64 58 50 42 35 30 25 20 18 17 16 18 20 26 35 46 62 81 95 101 101 93 79 70 76 87 97 95 75 63 65 61 67 87 88 75 71 74 73 61 50 52 63
97 105 103 101 102 103 102 101 101 101 103 101 99 96 91 87 87 86 87 92 96 97 96 93 91 88 86 81 76 75 75 77 80 84 89 90 90 92 91 90 88 83 76 69 62 57 50 41 34 27 24 21 18 20 21 26 35 40 48 69 90 99 101 101 95 86 83 86 96 97 72 55 64 64 64 83 93 83 73 74 76 67 58 63 72
98 104 102 101 101 101 102 103 103 103 103 102 99 94 89 88 88 86 83 84 87 89 86 85 86 85 84 82 78 77 78 82 87 90 90 90 92 95 95 93 89 82 77 72 68 66 60 51 42 31 25 21 19 21 24 29 39 46 51 67 89 100 101 103 102 96 94 92 94 97 75 52 60 67 58 68 90 93 80 77 81 71 67 82 93
100 103 101 102 103 103 103 104 104 102 102 103 102 98 94 91 89 87 82 80 80 78 76 77 79 79 80 81 80 80 81 84 87 88 85 85 87 89 89 88 86 80 75 70 66 64 61 58 52 42 32 21 14 14 18 23 33 43 53 68 90 103 102 102 103 98 99 99 95 99 85 55 51 63 59 58 80 99 90 79 86 81 75 89 99
101 101 102 103 102 104 103 102 104 103 102 104 104 102 100 98 96 94 91 86 81 75 70 70 71 73 76 77 77 79 82 85 86 84 82 81 83 84 81 78 80 79 75 69 66 63 58 56 53 47 40 29 16 8 7 14 23 30 41 57 83 103 103 101 103 99 100 98 90 93 89 67 54 56 58 59 73 99 95 75 82 85 78 92 104
101 100 103 105 103 103 103 101 103 103 103 104 105 103 102 103 103 102 101 98 89 79 70 64 63 66 69 70 72 74 78 81 78 76 76 76 77 78 75 74 76 75 70 66 64 60 54 52 49 42 37 29 19 9 4 8 15 22 28 37 58 87 100 102 100 100 102 95 87 91 85 70 58 52 60 71 77 93 94 72 70 74 69 84 101
101 99 100 103 102 101 103 103 102 103 103 102 103 102 101 104 104 102 105 104 96 85 73 64 59 59 63 64 64 64 68 71 70 67 68 70 71 69 68 71 70 66 64 63 60 56 52 45 39 33 28 23 18 15 12 12 12 16 22 24 33 56 85 102 101 99 104 97 91 96 85 63 51 47 65 85 79 82 92 77 63 64 62 74 89
94 91 90 92 93 93 100 104 102 101 102 102 104 102 100 102 104 103 104 103 99 89 77 67 60 57 60 59 56 56 58 60 63 63 61 63 68 67 67 70 67 63 65 65 61 55 45 34 29 32 36 38 39 38 37 34 28 22 20 20 21 30 55 90 104 99 101 103 98 98 88 64 42 38 66 94 80 66 79 79 67 63 66 77 84
80 77 77 79 81 84 90 96 99 100 101 103 104 102 100 102 103 102 102 99 95 86 76 69 62 56 55 54 55 58 57 58 62 63 61 64 70 72 74 74 70 68 70 68 58 45 34 32 40 54 67 74 74 72 70 68 61 50 36 24 19 19 28 60 95 103 100 101 100 100 97 76 51 44 63 80 70 56 65 74 69 65 73 85 83
74 71 74 75 76 79 84 87 92 96 99 101 100 96 96 98 97 96 96 92 88 83 75 68 63 58 55 53 55 55 55 58 63 66 70 76 78 79 81 79 75 76 74 62 46 36 39 53 69 83 95 98 95 94 94 92 85 76 61 41 26 22 17 27 67 99 105 101 98 101 102 90 75 70 67 63 59 57 65 74 73 75 85 89 81
80 77 81 81 78 80 86 91 94 96 99 101 100 95 91 90 90 91 93 90 85 81 76 70 66 64 61 58 57 56 57 64 69 73 79 85 85 84 85 84 81 77 65 47 37 47 65 80 88 96 102 102 100 101 101 102 100 89 77 61 41 32 24 16 31 67 95 104 100 99 102 97 92 88 73 57 52 57 73 85 83 83 92 93 84
83 83 84 85 82 81 84 89 94 98 98 95 93 89 86 86 86 88 94 94 85 78 73 69 65 62 62 62 61 60 63 69 73 80 87 89 89 90 92 90 81 66 50 40 48 69 86 92 96 100 101 99 100 101 99 104 107 96 85 76 58 44 38 25 20 43 78 98 101 101 102 99 97 90 66 45 44 57 80 94 88 83 90 96 92
88 90 88 86 87 89 90 89 92 96 97 95 92 86 83 84 86 87 91 93 88 82 77 70 64 60 58 58 57 59 67 75 82 90 92 91 93 98 95 84 65 49 45 50 65 84 96 101 103 103 101 99 100 101 99 102 106 102 95 86 70 58 55 51 54 72 91 98 100 101 100 99 100 93 70 53 57 72 89 97 93 89 93 100 92
94 98 99 96 96 100 100 97 96 97 97 97 95 91 86 85 85 87 89 90 92 93 89 82 74 65 60 60 60 65 77 88 93 95 95 98 103 99 81 60 47 48 57 66 74 83 92 99 99 99 99 100 101 101 99 99 103 105 103 95 85 83 86 85 89 99 102 100 99 100 100 99 100 97 88 80 81 89 96 99 98 98 100 98 82
95 93 96 99 101 104 104 101 99 98 97 95 93 93 92 89 86 88 90 92 96 99 97 91 83 74 70 71 72 78 89 96 97 97 101 105 97 76 53 44 49 59 67 72 76 78 81 83 87 92 93 90 95 102 101 100 104 104 102 100 97 97 101 101 100 100 100 101 101 100 100 100 98 99 100 96 91 95 101 102 100 104 102 88 70
99 97 95 96 99 102 103 104 103 101 99 96 94 95 96 93 88 88 90 94 96 97 95 92 88 85 85 86 89 93 95 95 98 103 103 90 68 48 43 52 65 71 74 77 79 78 72 64 68 82 84 78 83 97 102 102 104 104 103 101 100 99 100 100 100 99 99 101 100 99 100 100 99 99 100 101 98 99 103 101 100 104 97 77 65
95 100 100 98 100 100 97 98 99 99 100 98 95 94 95 91 86 86 91 96 97 95 93 92 91 93 96 99 101 100 98 101 104 97 78 57 45 47 58 69 76 79 83 86 88 87 77 61 59 71 75 68 69 82 96 102 102 102 101 97 98 101 100 98 99 100 102 102 100 100 100 98 99 100 101 102 101 100 102 102 102 105 99 84 75
96 99 96 93 96 99 99 99 97 97 101 103 101 100 97 90 83 85 94 98 94 91 93 93 92 96 101 104 102 101 104 102 87 64 50 48 54 64 72 77 80 88 98 101 97 91 76 55 50 61 70 67 60 63 80 95 100 99 96 93 97 100 99 101 104 103 103 99 91 91 97 100 100 100 99 100 99 102 106 105 103 106 103 93 83
98 98 96 92 90 90 92 93 91 90 93 98 103 106 102 91 83 87 97 98 90 88 91 91 93 99 104 103 102 102 95 76 53 46 54 64 67 70 75 80 87 97 102 93 78 67 56 46 51 68 79 78 70 68 79 93 99 99 96 95 100 101 99 102 102 99 99 93 79 75 86 97 100 100 101 102 101 102 103 101 103 106 99 87 77
92 93 94 91 87 84 83 82 83 84 86 86 92 103 105 94 86 92 100 97 88 86 87 89 96 103 103 103 103 90 65 45 42 52 62 66 70 79 89 94 94 91 83 71 64 67 72 78 86 91 90 84 82 86 93 97 99 99 96 96 100 101 100 103 104 102 102 96 84 79 86 96 100 100 100 98 95 96 100 103 104 99 87 74 63
94 93 90 86 82 80 79 80 83 86 87 84 84 96 104 96 89 96 102 100 92 84 84 92 101 104 104 104 90 62 40 40 49 55 60 69 83 97 102 95 80 69 63 64 71 81 91 97 101 100 96 94 94 97 100 100 100 100 96 90 87 86 87 90 94 96 99 102 100 95 92 89 87 89 95 96 95 98 101 98 90 77 65 54 41
94 89 88 88 85 81 82 89 93 94 95 91 87 95 102 96 90 95 102 103 95 84 86 98 104 106 107 94 64 40 40 50 54 57 70 86 99 104 96 79 68 68 76 82 87 93 98 100 100 100 100 100 100 99 100 99 99 100 99 95 90 87 85 86 83 76 74 79 81 80 80 82 84 93 101 100 94 91 84 72 60 48 39 32 26
85 86 94 99 96 91 93 99 99 96 96 94 91 96 100 93 90 96 103 101 90 84 92 102 106 110 102 74 44 38 48 55 61 72 87 98 101 96 85 79 85 93 97 98 98 99 101 100 99 100 101 100 100 100 100 100 100 100 100 99 99 98 97 99 97 85 70 62 62 71 86 97 100 101 98 87 75 66 54 42 36 33 31 33 37
86 97 106 104 98 97 101 102 96 90 90 90 91 97 99 91 88 98 105 97 85 87 97 102 106 108 87 54 39 44 52 61 72 83 92 98 98 91 85 92 103 104 101 101 100 99 101 101 100 100 100 100 100 100 100 100 99 100 100 99 100 100 100 101 102 99 92 85 87 96 104 103 98 91 82 68 54 45 40 39 41 43 44 45 47
96 104 105 101 97 99 102 103 100 94 91 89 91 97 98 89 88 100 105 92 83 92 100 102 107 100 69 45 44 50 56 70 80 85 93 100 98 95 97 101 102 99 99 101 101 99 100 100 100 100 99 100 100 100 100 100 99 99 100 99 99 99 100 100 99 100 102 102 103 104 98 91 88 84 75 63 54 52 56 58 57 55 52 52 55
102 105 103 102 101 100 100 101 103 101 95 90 90 96 96 87 88 102 103 87 84 96 101 103 108 92 57 43 51 54 60 74 79 82 93 97 93 93 98 99 99 101 101 99 98 100 101 98 99 101 100 99 100 100 99 99 99 100 100 99 100 100 101 103 103 104 105 104 102 98 92 90 92 88 78 72 70 69 68 65 63 63 65 67 73
105 101 101 102 100 99 101 103 105 103 96 88 89 95 94 86 91 104 101 85 86 99 101 103 106 82 49 45 58 59 60 66 70 74 84 88 89 91 92 95 99 101 96 85 78 82 92 98 100 100 99 99 99 99 101 101 99 100 101 100 100 100 101 103 104 102 101 100 98 99 99 99 95 85 76 74 73 70 67 67 69 72 73 75 79
103 97 98 100 99 99 102 103 103 99 91 86 91 97 93 89 97 106 98 85 90 100 101 104 101 72 43 48 65 66 59 58 58 60 67 78 88 91 89 94 98 93 85 72 56 56 71 89 100 102 100 101 100 98 99 101 99 100 100 99 98 99 100 101 101 101 102 101 99 101 103 97 85 75 70 70 67 65 64 64 65 68 70 73 75
Wind_Speed
59 58 57 57 57 56 56 56 56 57 59 60 61 62 62 60 60 62 64 65 66 66 65 64 64 64 62 61 62 64 65 65 65 65 65 65 66 68 69 70 70 70 70 70 70 69 69 67 65 63 61 62 61 60 57 55 54 54 54 53 52 53 52 52 53 55 55 54 53 53 53 52 51 51 50 50 50 50 51 52 53 54 55 57 58
61 60 59 59 59 58 59 59 59 59 59 60 61 63 64 64 64 64 65 67 68 69 68 67 66 65 64 63 63 64 65 65 65 65 65 65 65 66 67 68 70 72 72 71 71 72 72 70 68 65 63 63 63 61 59 57 56 56 56 55 54 55 55 54 54 56 57 56 56 56 54 52 51 50 49 49 49 50 50 50 50 51 52 54 56
64 63 62 61 61 61 61 62 63 64 64 63 64 64 65 66 67 67 68 69 70 72 73 72 70 68 67 66 66 66 67 67 67 67 66 66 66 67 67 67 69 70 70 71 72 73 73 71 69 66 64 63 62 61 60 60 60 59 58 58 57 57 57 56 56 57 58 58 58 57 56 55 53 51 50 50 51 52 53 52 51 52 52 53 55
69 67 66 65 65 66 66 67 68 69 69 68 68 67 67 68 68 69 70 71 72 73 75 75 74 72 70 68 68 68 69 69 69 68 68 67 67 68 68 67 68 70 71 71 71 71 71 70 67 66 66 65 63 63 63 64 64 62 62 62 61 59 58 57 56 57 58 57 58 58 58 57 54 53 52 52 53 53 54 55 54 55 55 55 56
72 71 70 71 72 73 73 73 74 74 74 73 72 71 71 70 70 70 72 73 74 76 77 77 76 74 72 70 70 70 71 71 71 71 70 69 69 69 69 69 70 71 70 71 71 70 70 70 69 68 69 68 65 64 64 65 65 64 64 64 63 61 60 59 58 58 58 57 58 58 58 57 55 55 54 54 54 54 54 55 56 56 56 57 58
73 74 75 76 78 79 80 81 81 80 80 79 77 76 76 75 73 72 73 74 76 78 79 79 78 77 75 73 71 71 72 73 74 74 73 73 73 73 74 74 74 72 69 70 72 71 71 73 74 74 73 71 66 63 63 63 63 63 63 63 63 62 62 61 59 59 60 59 59 59 59 58 58 57 57 56 56 55 55 55 55 56 57 57 57
76 77 79 80 82 83 83 85 86 86 85 83 81 79 79 79 77 76 75 77 79 80 80 80 80 79 77 75 74 74 74 75 76 77 77 77 76 76 77 78 78 78 76 77 79 78 76 77 79 80 77 73 67 63 63 63 62 62 62 63 63 63 64 63 61 61 61 61 61 62 61 61 61 60 59 59 58 57 57 57 57 57 57 57 57
78 80 81 83 85 86 86 87 88 89 88 86 84 82 81 80 80 79 78 78 81 83 83 82 81 80 79 78 78 78 77 77 78 79 80 80 79 78 78 78 79 79 80 81 83 83 81 81 82 83 80 74 68 64 64 63 62 62 62 62 63 63 63 62 62 62 63 63 64 64 63 63 63 62 62 62 61 60 60 59 59 59 59 59 58
81 82 84 85 87 88 89 89 88 88 87 86 85 85 84 83 81 81 80 80 81 83 86 86 85 84 82 81 81 81 79 79 80 81 82 82 82 81 81 81 81 80 80 81 82 83 83 83 84 83 80 75 70 66 65 65 64 63 63 62 62 62 61 61 62 62 62 64 65 65 66 64 64 64 64 64 64 63 62 61 60 61 61 60 59
84 84 85 86 87 87 88 89 89 88 87 86 84 84 84 84 83 82 81 82 83 83 86 88 90 89 86 82 80 80 80 80 81 83 84 84 84 83 84 84 85 85 84 84 84 84 85 85 85 84 81 78 75 71 68 68 67 66 65 64 63 62 62 62 62 62 61 62 63 64 66 66 65 64 64 65 65 65 64 63 62 62 63 62 61
86 86 86 86 86 86 87 88 88 87 86 84 82 80 79 80 81 82 82 83 84 85 86 88 90 92 90 85 79 77 78 80 82 83 84 86 86 86 86 86 87 88 88 88 88 88 88 88 87 86 83 81 79 76 73 72 71 70 69 67 65 63 63 63 63 63 61 61 60 61 63 64 64 64 64 65 65 66 66 65 64 64 64 64 63
88 88 87 87 87 86 86 86 85 82 79 74 71 69 69 71 73 75 77 81 84 85 85 86 88 90 92 90 84 79 78 80 82 83 84 85 85 85 85 86 87 88 89 90 90 90 89 89 89 87 86 85 83 81 78 77 76 74 72 70 68 65 63 63 63 63 62 61 60 60 60 60 61 62 63 64 65 65 66 66 65 65 66 65 64
89 88 87 86 84 83 83 81 77 69 63 58 54 53 54 56 58 60 63 68 75 81 84 86 86 86 88 89 88 85 82 81 83 85 85 85 85 84 84 84 85 87 87 88 89 89 88 88 88 88 87 87 86 85 83 82 81 79 76 73 69 67 64 63 61 61 61 61 61 60 60 59 59 60 61 62 64 64 65 65 65 64 64 65 64
88 87 85 80 78 77 75 69 63 56 52 48 46 45 45 44 45 46 46 49 54 62 70 78 83 86 86 87 89 89 87 85 84 85 86 86 86 85 85 84 84 84 85 87 89 89 89 89 89 88 87 87 86 86 85 85 84 82 79 75 71 69 66 64 62 60 60 60 60 60 59 59 58 59 61 61 62 63 63 64 63 63 63 64 64
84 82 78 73 70 67 61 55 53 52 50 48 47 45 43 41 39 38 38 39 41 44 49 55 65 74 81 85 88 90 90 89 87 86 87 87 86 85 86 87 87 85 83 83 86 88 88 87 87 86 86 85 84 84 85 86 85 83 80 77 74 71 69 66 63 62 61 60 60 60 59 58 57 58 59 61 61 62 62 63 63 63 63 63 63
79 75 69 65 61 56 51 49 50 50 49 48 46 44 41 38 35 34 34 35 36 38 40 42 46 51 58 65 71 78 84 88 89 88 88 88 87 86 86 87 89 90 87 83 83 84 84 84 84 84 84 85 85 85 86 86 86 85 82 79 76 74 72 69 67 64 62 62 61 60 59 58 56 56 57 59 60 61 62 62 62 62 62 61 61
72 66 61 56 52 50 50 49 48 47 45 43 41 39 36 35 33 31 30 30 32 33 35 38 40 42 44 46 50 56 64 72 80 85 87 88 89 89 89 90 92 93 92 89 85 84 84 83 83 82 82 82 83 85 85 85 86 84 82 79 77 75 73 72 70 67 63 62 62 60 59 58 57 56 56 56 58 60 62 62 61 61 61 60 60
64 57 52 49 48 49 49 48 46 44 42 40 38 37 36 35 34 32 29 29 29 29 29 30 33 36 38 38 40 42 45 52 59 68 77 83 86 89 91 93 95 96 96 94 92 90 88 86 84 82 80 79 78 79 82 83 84 83 81 80 77 75 74 73 72 70 66 64 62 61 60 59 58 57 57 57 58 59 61 61 60 60 60 59 59
56 50 47 46 47 48 46 45 44 43 42 41 40 39 38 38 36 34 32 30 29 27 26 26 27 29 30 31 33 34 37 40 44 50 57 65 71 77 82 87 91 93 94 94 94 93 92 89 85 83 81 79 76 75 76 79 82 82 81 80 78 77 76 75 74 72 69 66 65 63 61 60 59 58 59 60 59 59 60 61 60 60 60 58 57
49 46 46 47 47 45 43 42 43 43 43 43 42 41 40 40 38 36 34 31 29 26 24 23 24 25 26 26 27 29 32 35 39 42 46 50 54 58 64 70 76 81 84 87 89 91 92 91 89 86 84 82 80 77 75 76 79 81 81 80 80 80 79 78 77 73 70 68 66 65 63 61 59 59 60 60 60 59 60 60 60 60 59 57 55
44 44 46 48 46 43 41 41 41 42 42 42 43 43 42 41 39 37 35 33 29 25 23 21 21 22 23 24 25 26 29 32 36 39 41 43 45 48 50 55 60 65 70 75 79 83 87 89 90 90 89 87 86 84 81 78 77 79 81 82 82 82 82 81 79 76 72 69 67 66 64 62 61 60 61 60 58 58 59 59 59 59 58 55 54
42 44 46 47 46 42 40 40 40 40 41 42 43 43 43 42 41 38 36 34 30 25 23 21 20 21 22 23 23 24 26 29 32 35 37 39 41 42 44 46 48 52 56 60 64 69 75 80 84 86 88 89 89 89 89 87 83 80 80 82 83 83 82 82 81 79 75 72 69 66 64 62 61 61 62 60 57 56 58 58 57 58 57 54 53
40 44 45 46 44 41 39 39 39 40 41 42 43 43 44 43 42 39 37 35 32 27 24 22 21 21 22 22 23 23 25 26 28 29 30 31 33 35 37 38 40 42 45 47 50 54 60 65 71 76 81 85 87 89 90 91 91 88 84 82 83 83 83 82 82 81 78 74 71 68 64 62 61 62 61 59 56 56 57 57 56 56 56 54 52
39 42 43 43 41 39 39 38 39 40 42 44 45 44 44 43 42 40 37 35 33 29 27 25 23 22 22 23 23 24 24 25 25 25 25 26 27 28 29 31 32 34 36 39 42 45 49 54 59 64 69 74 79 84 88 90 92 92 90 87 84 83 83 82 82 82 81 76 71 68 65 63 63 63 61 58 56 56 56 56 54 53 53 53 51
39 42 42 41 40 39 39 39 40 42 44 46 46 45 44 42 41 39 37 34 32 30 28 26 25 24 23 23 23 24 25 25 25 25 25 26 26 27 28 29 31 32 33 35 37 40 45 49 54 57 61 65 69 74 80 86 89 91 91 89 87 84 82 82 82 82 82 78 72 68 65 63 64 65 63 59 57 57 56 53 52 51 51 50 50
40 42 41 40 39 39 40 41 42 43 45 46 46 45 44 42 40 39 37 34 32 30 28 26 26 25 25 25 24 25 25 26 26 26 27 27 28 29 31 32 34 36 37 38 38 40 43 46 50 53 56 60 65 69 73 79 84 88 89 88 87 84 81 81 81 81 82 79 75 70 67 65 65 66 65 60 57 58 57 53 51 51 51 51 51
40 40 39 39 39 40 40 41 41 41 42 43 44 44 43 41 40 39 37 35 33 30 28 27 27 26 26 26 26 26 26 27 28 29 30 31 32 33 34 36 38 40 42 43 44 45 45 47 48 50 52 55 60 65 70 74 78 83 87 88 88 85 81 79 78 79 79 79 76 72 69 68 67 67 67 60 56 58 57 54 53 53 54 53 52
38 38 37 37 38 39 40 40 40 39 38 39 40 40 40 40 39 39 38 36 34 32 30 29 28 28 28 28 28 28 29 30 30 31 32 34 35 37 38 40 41 43 45 47 48 50 50 50 51 52 52 54 56 60 66 71 75 79 83 87 89 87 84 80 77 76 76 76 75 73 71 70 68 69 68 62 56 56 56 55 54 54 54 53 50
36 35 34 34 35 36 38 40 41 40 38 37 36 36 36 36 36 37 37 36 36 34 32 31 30 29 30 30 30 31 31 32 33 33 35 37 39 40 42 43 44 46 49 50 52 53 54 53 54 53 53 54 55 56 60 66 73 77 80 84 87 89 87 82 78 75 74 75 74 73 72 71 69 69 67 61 55 54 56 55 54 55 55 53 50
34 32 31 32 33 34 36 39 41 40 37 36 35 34 33 33 33 33 33 34 35 35 34 33 32 32 32 32 32 33 33 34 35 36 37 39 41 44 45 45 47 50 52 53 54 55 55 55 54 52 51 51 52 53 55 60 67 73 77 81 83 86 87 85 81 77 75 75 73 72 71 70 69 66 64 60 55 53 55 56 55 55 56 56 54
31 30 30 30 31 32 34 37 39 38 37 35 34 33 32 32 32 32 32 32 34 35 35 35 35 34 34 34 34 34 35 35 37 39 41 42 44 46 47 48 50 52 54 55 55 54 54 52 49 46 44 44 45 45 47 51 56 62 69 74 79 82 85 85 83 79 77 75 73 71 71 69 67 64 61 60 56 53 56 58 56 55 57 58 57
28 28 29 30 31 32 33 34 36 36 36 36 36 35 34 33 32 31 32 33 34 35 36 36 36 36 36 36 36 36 37 38 39 41 43 44 46 47 48 49 51 53 54 54 53 51 48 44 40 36 35 35 36 36 37 40 45 48 55 63 70 76 80 83 84 81 79 76 73 71 71 69 67 64 62 61 57 54 55 57 56 56 58 58 56
27 28 30 32 33 34 34 35 36 36 37 37 38 38 36 36 34 33 33 34 34 35 36 36 37 36 36 37 37 37 38 38 40 42 43 44 46 47 47 49 51 52 51 50 48 43 38 33 29 27 27 27 26 26 28 32 36 39 43 50 57 65 71 77 81 81 80 78 74 72 71 69 68 65 62 62 59 54 55 58 57 57 57 56 54
28 30 32 34 34 35 36 37 37 38 39 39 40 40 39 38 37 36 35 35 35 34 35 35 36 36 36 36 36 36 36 37 39 40 41 42 44 45 45 48 49 49 47 44 39 33 28 25 23 21 21 20 19 20 22 24 28 31 35 40 46 52 58 66 72 77 79 80 77 74 71 69 68 65 61 61 59 55 56 58 57 56 55 53 53
29 31 33 35 36 37 38 39 39 40 40 41 41 41 40 39 39 37 36 36 36 35 34 34 34 34 33 33 34 34 34 36 37 38 39 40 42 42 43 45 45 44 40 36 30 25 23 22 21 20 19 17 17 19 19 19 21 24 28 33 37 42 48 54 60 66 71 76 76 73 71 69 68 65 61 61 61 57 56 58 56 54 53 52 53
32 34 35 36 37 39 41 41 42 42 42 42 42 42 42 41 40 38 36 35 35 34 34 33 32 31 31 31 31 31 32 33 33 35 37 39 40 41 42 42 40 36 31 27 23 21 21 22 22 21 20 18 17 19 19 18 18 19 22 26 29 34 40 45 50 53 57 63 67 67 67 68 68 66 62 63 63 58 56 56 55 53 52 51 51
38 39 39 39 40 41 44 45 45 45 44 43 42 42 42 41 40 39 37 35 34 34 33 32 30 29 29 29 29 29 29 30 31 33 36 38 39 40 39 37 32 27 24 22 21 21 22 24 24 23 23 21 18 18 19 18 18 18 20 20 21 27 33 40 46 47 46 50 56 59 61 64 65 64 62 62 60 56 54 54 52 50 50 50 49
41 41 41 42 42 43 46 47 48 48 47 45 42 41 41 41 40 39 37 35 34 33 32 30 28 28 28 27 27 27 27 28 30 33 36 38 38 35 32 29 25 21 20 21 22 22 23 25 25 24 24 23 20 19 19 19 18 17 19 20 22 25 29 36 41 41 39 43 51 56 56 57 58 58 58 58 56 53 51 50 49 48 48 49 47
43 43 43 43 44 45 47 47 48 49 48 46 43 40 40 40 39 38 36 35 33 32 30 28 26 26 26 25 25 25 26 29 31 34 35 35 32 28 24 21 20 20 20 21 23 23 24 25 26 24 23 23 23 21 20 19 18 18 19 23 26 27 28 32 35 35 35 38 47 53 53 51 52 52 53 53 51 49 47 45 45 45 46 46 45
42 43 44 45 46 47 47 47 47 47 46 45 43 40 39 38 37 36 34 33 32 31 29 26 24 23 22 22 23 25 27 29 31 31 30 26 22 19 18 18 18 19 19 19 21 23 23 23 24 23 20 20 22 22 21 19 18 18 19 23 26 26 27 30 32 34 34 36 42 49 49 46 47 48 48 47 45 44 44 43 42 43 44 45 44
43 44 45 45 46 48 49 49 48 46 44 42 41 39 37 36 35 33 32 32 31 29 27 24 21 19 19 21 23 25 27 28 28 24 20 17 16 16 15 15 15 15 16 19 22 23 21 19 21 20 17 16 18 20 21 19 17 17 18 24 26 25 27 29 32 34 35 36 40 45 45 44 45 46 45 43 41 41 42 43 44 45 45 45 44
44 45 46 47 47 48 48 49 49 47 44 41 39 36 34 33 32 31 30 30 30 28 25 20 17 17 18 21 23 25 26 25 21 17 15 14 14 12 11 12 12 14 16 17 15 12 9 10 14 14 13 13 14 17 19 18 15 14 18 25 25 25 27 30 32 35 35 35 39 43 44 44 46 46 44 43 41 41 42 44 46 47 45 44 43
45 46 47 48 49 49 50 50 50 48 45 41 38 34 32 31 29 28 28 28 28 26 22 16 14 16 18 20 22 23 22 19 16 14 13 10 7 7 9 11 11 10 9 7 3 2 3 3 6 8 8 9 11 13 14 13 11 12 18 24 24 23 24 26 29 32 33 32 35 39 41 43 45 44 42 40 40 40 42 43 43 43 43 42 43
49 49 50 51 52 52 53 52 50 47 44 41 37 34 31 28 26 25 25 25 26 24 18 13 12 15 17 19 20 19 16 14 13 10 5 4 6 9 10 9 6 3 2 3 4 7 8 6 4 5 6 7 9 11 10 9 9 11 18 25 25 23 22 22 24 28 29 29 29 32 35 38 39 38 36 36 37 38 40 41 40 40 40 40 42
51 52 54 55 57 57 55 53 51 47 43 39 35 33 30 26 23 22 22 22 23 20 15 12 12 14 16 17 16 13 11 11 8 4 7 7 9 10 8 3 1 2 4 6 8 11 10 6 2 2 2 3 5 6 6 5 6 10 16 23 25 24 24 24 25 28 30 29 28 29 30 32 34 34 33 33 33 35 36 37 37 37 38 40 42
53 56 59 60 60 60 57 54 51 47 42 37 32 30 28 24 20 19 20 20 20 16 12 11 11 13 15 14 10 8 8 6 4 8 7 7 9 7 2 1 2 5 7 8 9 10 8 4 2 0 2 3 4 3 4 4 5 9 13 17 19 20 22 23 25 27 31 33 33 31 30 30 30 30 30 30 30 32 33 34 34 36 37 39 41
58 61 63 64 63 60 58 54 50 45 40 34 28 26 25 21 17 16 17 18 16 12 10 10 11 13 13 9 6 6 4 5 8 6 5 7 7 4 2 2 5 7 8 9 9 8 5 1 1 3 5 6 5 4 4 4 5 7 10 12 15 17 20 23 24 25 26 28 29 29 28 27 27 26 26 27 29 30 30 30 31 33 34 36 38
62 65 66 65 63 60 56 52 46 41 35 29 24 22 21 17 14 14 15 16 13 9 8 9 10 12 10 4 3 3 4 8 6 3 4 6 7 5 4 4 5 6 7 8 9 7 2 2 4 5 7 7 6 5 4 5 5 7 8 10 13 17 19 21 21 21 21 22 23 24 24 24 24 23 24 24 24 24 25 26 29 32 34 36 37
64 67 67 64 61 57 51 47 43 37 29 22 19 19 17 14 12 12 14 14 9 5 6 8 10 11 6 1 3 3 6 6 3 2 4 4 4 4 4 4 5 7 8 9 8 6 1 5 7 7 8 8 7 6 5 5 6 7 9 12 14 16 18 19 19 21 21 20 20 20 20 20 20 19 19 18 18 20 24 27 30 32 33 34 35
67 67 64 61 57 52 46 42 38 31 22 15 15 16 14 11 10 11 13 12 6 4 5 7 10 9 3 4 5 4 6 5 2 1 3 3 3 2 2 3 6 8 9 8 7 6 3 4 8 10 10 10 9 7 6 6 8 12 15 17 17 17 18 18 19 18 17 16 16 16 16 16 16 15 14 15 17 21 24 26 28 29 30 30 30
66 63 59 56 52 47 42 38 33 25 18 14 15 14 11 9 9 11 12 9 4 3 5 7 10 8 0 6 6 5 5 4 4 2 1 3 3 2 2 3 5 7 7 7 7 6 5 4 5 8 9 10 10 11 11 12 14 17 18 17 16 14 14 14 15 14 13 12 13 13 14 14 14 14 15 16 18 20 21 22 23 24 25 26 27
Wind_Direction
298 296 295 294 293 293 292 292 291 289 288 286 283 280 277 273 269 268 268 269 269 269 268 267 266 265 263 262 263 263 263 263 262 262 263 263 262 261 261 260 260 259 259 260 261 261 262 263 264 264 265 266 266 267 266 263 260 258 257 257 257 257 257 255 255 256 257 258 259 258 258 257 257 257 258 260 260 260 260 260 259 259 259 259 260
296 295 294 294 293 293 293 292 291 290 288 286 283 280 277 274 271 268 266 266 266 266 265 265 265 264 262 260 259 260 261 262 263 263 263 263 263 262 261 260 260 259 259 259 259 260 260 262 263 264 264 266 267 267 265 262 259 257 257 256 256 257 256 254 254 254 255 256 256 256 257 258 257 258 258 259 260 260 260 259 259 260 260 260 260
297 296 296 296 295 294 293 292 291 290 288 285 283 280 277 274 271 268 266 264 264 264 264 263 263 262 262 261 259 258 258 259 261 262 262 263 264 263 262 260 260 259 258 258 259 259 260 262 263 264 264 265 266 266 265 262 260 258 258 258 257 258 258 256 255 255 256 255 256 256 257 257 257 258 259 259 259 258 259 259 259 259 260 261 261
298 297 297 296 296 295 294 293 292 291 288 285 282 279 276 273 270 268 266 264 263 262 262 261 261 261 261 260 259 258 257 257 257 258 259 260 261 260 258 255 255 256 257 256 256 258 260 261 263 264 263 263 265 266 265 263 261 260 260 260 259 259 259 258 256 256 257 257 258 258 257 257 258 258 258 258 258 257 258 259 259 259 260 260 261
299 297 296 296 296 295 294 293 292 291 290 287 283 279 275 272 269 266 264 262 261 261 260 259 258 258 258 258 258 258 258 258 258 257 256 255 254 254 254 251 251 254 255 253 253 254 257 259 261 263 263 263 265 265 264 262 262 262 261 261 260 261 261 259 257 257 257 258 259 259 259 259 259 258 257 257 258 259 259 259 260 260 260 260 260
299 297 296 295 295 294 293 292 291 291 290 288 284 281 277 274 270 266 262 258 256 256 256 256 255 255 255 255 254 255 256 258 259 258 257 254 252 251 250 250 250 251 251 250 251 252 253 256 259 261 262 263 264 264 263 263 263 263 263 263 263 262 262 261 259 259 258 258 258 259 259 259 258 257 257 257 258 259 260 260 261 261 261 261 262
298 297 296 295 293 292 292 291 291 290 289 287 284 280 277 274 271 268 263 257 253 251 250 250 250 250 250 250 250 252 253 254 256 257 258 257 255 253 252 251 251 251 251 251 252 253 254 256 258 260 261 262 263 263 262 262 263 263 265 265 265 265 264 263 262 262 261 259 258 258 258 258 258 258 258 258 258 259 260 261 261 261 262 262 263
299 298 296 295 294 292 291 291 291 291 290 288 285 280 275 272 270 268 265 260 254 250 249 248 247 247 246 247 248 249 250 251 252 254 255 256 256 256 255 254 252 251 251 252 253 253 254 255 256 257 259 261 261 261 260 260 261 263 264 266 266 267 267 266 264 262 262 261 260 259 258 258 258 258 258 258 258 259 259 260 261 261 262 262 263
302 300 298 297 296 295 294 293 293 292 290 287 284 280 276 271 267 266 264 261 256 252 250 249 250 250 250 250 250 250 249 249 250 251 252 252 253 254 254 254 254 254 252 252 252 253 253 254 255 257 259 259 259 259 258 257 258 260 262 263 265 266 267 267 265 263 262 262 261 261 260 259 259 258 258 258 259 259 259 259 260 260 261 261 262
304 302 300 299 297 296 295 294 293 291 289 286 283 279 275 271 268 265 263 261 259 255 252 251 251 252 253 254 254 252 249 248 248 248 249 250 251 252 252 252 253 253 253 253 253 253 254 255 256 257 258 258 258 257 255 254 256 258 259 261 263 264 265 265 265 264 263 262 261 261 261 260 260 260 259 259 259 259 258 257 257 259 260 260 260
305 302 301 300 298 297 295 293 292 292 291 288 285 281 276 273 270 267 265 263 261 259 257 255 253 252 252 253 253 252 250 248 246 246 247 248 249 250 250 250 250 251 252 253 253 254 255 256 257 257 257 257 257 256 253 253 255 256 258 259 261 262 263 264 264 264 263 262 261 261 261 261 260 260 259 259 258 258 258 257 257 258 259 259 259
307 305 303 302 300 298 296 294 294 294 293 291 288 284 280 277 274 271 268 265 263 262 260 258 256 254 252 251 251 251 250 248 246 245 246 246 247 248 249 250 250 250 250 251 252 253 254 255 257 257 256 256 256 255 253 252 254 256 258 259 259 260 261 261 262 262 262 261 261 260 261 261 260 260 259 258 258 258 257 257 257 258 259 260 260
308 306 304 303 301 299 298 298 298 297 296 294 292 290 288 285 283 280 275 270 266 263 261 259 258 257 255 252 251 251 250 249 247 246 245 245 246 247 248 249 249 249 250 251 251 252 252 253 255 255 256 256 255 254 253 253 254 256 257 257 258 258 259 259 259 259 260 260 260 260 260 261 260 260 260 259 259 258 258 258 257 257 260 261 261
308 307 305 304 301 300 301 301 301 301 300 298 296 294 294 293 291 288 285 281 276 271 266 261 259 258 257 255 254 253 251 251 250 249 247 247 246 247 247 248 248 247 247 249 249 250 251 252 253 254 255 255 255 255 254 254 255 255 255 256 257 257 257 257 256 256 257 258 260 261 261 261 261 260 260 259 259 258 258 258 257 257 258 260 261
308 307 306 304 302 302 303 303 303 304 302 299 298 297 297 296 294 292 291 289 287 284 278 271 264 261 260 259 259 257 255 253 252 252 250 250 249 249 249 249 248 246 245 247 247 247 248 248 249 250 251 251 252 254 255 256 256 256 255 255 256 256 255 255 255 254 254 256 258 260 261 261 261 261 260 259 259 258 258 257 257 257 257 259 260
309 308 307 305 304 305 306 306 306 305 303 302 301 302 302 301 299 296 293 290 288 287 285 281 275 269 265 263 262 261 259 257 256 255 253 252 252 252 250 249 248 247 246 247 248 247 247 246 247 248 249 250 251 253 254 256 256 256 255 254 255 255 253 253 253 253 253 254 256 258 260 261 261 262 262 261 259 258 258 257 257 257 257 258 259
311 310 308 307 307 309 310 311 310 308 306 306 306 306 307 307 306 303 299 295 292 290 286 282 279 276 272 269 265 263 262 260 259 257 256 256 255 254 252 250 249 248 247 248 249 248 248 248 248 249 250 251 252 253 254 255 256 255 254 254 255 254 252 251 251 251 251 252 254 256 258 260 261 262 263 263 261 259 258 258 257 257 257 258 258
312 310 309 308 309 311 313 313 313 312 312 312 312 312 312 312 312 311 308 304 299 295 288 282 278 276 274 274 272 270 267 264 261 259 258 258 258 257 255 253 251 251 251 251 251 251 252 252 251 250 250 250 251 252 252 253 255 255 254 254 253 252 250 249 250 250 250 251 253 254 256 258 260 262 263 263 263 261 259 258 257 257 257 258 258
313 311 309 309 310 312 314 314 314 314 315 314 314 315 315 315 315 315 313 311 306 298 288 281 277 274 273 273 274 274 272 269 266 263 260 259 258 258 257 255 254 255 255 255 254 254 254 254 253 252 251 251 251 252 252 252 252 253 254 253 252 251 249 248 249 248 248 249 251 253 254 256 258 259 260 261 262 261 260 258 256 256 256 256 257
312 310 309 310 312 314 316 315 314 314 314 313 313 314 315 315 315 315 314 313 311 303 291 280 274 271 270 269 269 268 268 267 266 265 264 261 260 258 256 255 254 254 255 255 255 255 255 255 255 254 253 252 252 252 253 253 252 252 252 252 252 251 251 250 249 247 246 248 250 251 252 255 256 257 258 258 258 259 258 256 254 254 253 254 256
310 310 311 313 314 314 315 315 313 312 311 310 310 311 313 314 314 314 313 313 312 307 297 285 277 273 270 267 265 263 262 261 261 262 262 262 261 260 259 257 256 255 255 255 255 256 256 257 257 257 256 255 254 253 253 253 253 252 251 251 251 252 252 252 251 248 246 247 248 249 250 252 253 255 255 254 255 256 255 254 253 252 252 253 255
309 310 313 313 312 312 313 313 312 311 309 308 307 308 310 311 312 312 311 311 312 309 303 295 288 285 281 276 271 266 263 262 261 261 262 263 264 264 265 264 263 262 261 259 258 257 257 258 258 259 259 258 257 255 254 253 253 252 251 249 249 250 251 252 251 250 247 246 247 248 249 250 250 252 253 251 252 253 253 253 253 253 253 253 254
307 309 311 311 311 310 310 311 310 309 307 306 306 306 308 309 310 310 310 309 310 310 307 303 300 297 293 289 282 275 271 269 269 270 270 271 270 270 271 271 270 270 269 268 266 264 262 261 260 259 258 258 257 256 255 253 251 251 250 249 247 247 248 249 250 250 247 244 245 246 248 248 248 250 250 249 250 253 254 254 254 254 254 253 252
307 308 309 309 308 307 308 309 308 307 305 305 305 306 307 308 309 309 309 308 307 308 308 306 305 303 299 294 288 282 278 275 275 277 278 278 276 275 275 275 276 275 274 274 273 271 269 266 264 261 259 257 255 253 252 251 250 248 247 247 246 245 245 246 247 249 247 244 243 245 246 247 247 247 247 247 250 254 254 254 254 253 252 251 251
308 309 309 307 307 307 308 309 309 308 307 307 307 308 309 309 309 308 307 306 305 305 306 306 305 303 300 295 289 283 280 279 279 280 282 283 284 286 287 286 285 283 281 279 277 274 272 269 266 264 262 259 256 252 249 247 246 245 244 244 244 244 243 243 243 245 246 244 242 243 245 245 245 245 246 245 248 253 254 252 251 251 251 250 250
309 309 308 307 307 308 308 310 311 311 311 310 310 310 311 311 309 308 307 305 304 303 303 303 301 299 296 293 288 284 282 282 283 285 287 289 291 293 294 294 293 291 289 288 286 282 277 273 270 267 265 262 260 256 251 247 244 243 242 240 240 241 242 241 241 241 242 242 242 242 243 244 244 244 245 244 245 250 251 248 247 249 249 249 249
308 307 306 306 307 307 309 312 313 314 314 313 313 313 312 312 310 309 307 305 304 302 301 300 298 295 293 290 287 285 284 285 287 289 292 294 295 296 296 296 296 295 294 293 292 289 285 281 277 272 269 265 262 259 255 251 246 243 240 239 238 238 238 238 239 239 240 240 241 241 241 243 244 243 243 243 243 246 246 243 245 247 248 249 249
306 304 304 305 307 310 314 317 319 319 317 315 314 314 314 313 312 310 307 305 303 301 299 297 295 293 291 289 287 286 285 286 287 290 293 295 296 297 297 298 298 297 295 294 293 292 290 287 283 279 275 270 265 260 255 252 248 244 241 238 236 235 235 234 235 236 238 238 239 239 240 242 242 241 241 242 243 245 243 240 244 247 249 251 248
305 302 304 308 311 316 320 323 324 322 319 318 316 315 315 314 312 310 308 306 303 300 298 295 293 291 290 288 287 286 285 286 288 290 293 294 295 295 296 297 297 296 295 294 294 293 292 290 286 282 278 272 267 261 254 250 247 245 242 239 237 234 233 232 231 233 235 236 237 237 238 241 242 240 239 240 244 246 242 239 242 246 250 251 247
304 304 307 312 315 319 324 327 327 325 322 321 320 318 316 313 310 308 306 304 302 300 298 295 293 291 289 287 286 285 285 286 288 290 291 292 293 293 294 295 295 295 294 294 294 294 293 291 286 281 277 272 267 260 253 248 245 243 241 239 237 234 232 230 229 229 231 233 235 235 234 237 240 241 239 240 244 247 243 239 240 243 248 250 248
305 306 311 314 316 321 327 329 328 326 323 321 321 319 317 314 310 307 305 303 301 299 297 295 293 291 289 287 286 286 286 287 288 289 290 290 291 291 293 293 293 293 293 294 294 294 292 288 283 279 274 270 265 259 253 249 246 243 240 238 236 234 231 229 227 226 228 229 231 232 231 231 235 238 239 240 243 247 244 240 239 241 245 248 249
307 311 315 318 320 324 328 330 330 327 323 320 318 318 317 314 312 309 306 304 301 299 297 295 293 291 289 288 287 286 286 286 287 287 288 289 289 290 291 291 291 292 293 294 295 294 290 284 278 274 271 269 267 264 260 255 251 247 242 238 236 233 231 228 226 225 225 225 226 228 228 228 230 233 236 239 242 245 243 240 239 241 244 248 249
315 318 322 324 325 328 330 331 331 329 325 320 317 317 317 315 313 311 309 306 303 301 298 295 293 291 289 288 287 285 285 286 286 287 288 288 289 290 290 290 290 292 294 295 294 291 284 277 271 269 269 268 268 268 266 260 256 252 246 241 237 234 232 229 226 225 225 224 224 224 225 227 229 230 233 237 240 243 243 240 239 241 244 247 246
323 324 326 327 328 330 331 331 330 329 326 322 318 315 315 314 313 312 310 308 305 303 300 297 294 291 290 288 288 287 288 288 287 288 288 288 288 289 290 290 292 294 295 294 292 285 275 268 266 265 266 267 267 266 267 264 259 255 250 244 239 234 232 229 226 226 227 225 224 224 224 226 228 229 232 236 240 244 244 242 240 241 244 246 244
330 328 327 328 329 330 331 330 329 328 325 321 318 315 314 314 313 312 311 309 308 306 303 300 295 292 290 290 290 290 290 290 290 289 288 288 288 289 290 292 294 294 294 293 288 277 266 262 263 261 260 264 267 268 269 266 260 254 249 246 240 232 228 226 223 224 226 228 227 226 225 226 228 228 229 234 240 243 243 242 240 241 243 245 243
335 332 329 329 329 329 329 328 327 326 323 320 317 315 314 314 313 311 310 310 311 310 308 305 300 296 293 293 293 294 294 294 293 291 289 289 289 291 293 294 294 293 293 291 285 272 261 257 259 258 255 257 263 265 265 266 261 249 244 245 237 224 219 218 216 217 222 227 228 228 226 226 228 227 227 232 238 241 240 239 239 241 243 244 242
336 334 331 329 328 327 327 327 326 325 323 320 317 315 314 313 312 311 310 312 315 315 313 309 304 299 297 297 298 299 298 296 294 291 290 290 292 294 295 294 293 292 291 288 281 274 263 256 254 254 252 250 254 257 256 261 262 248 236 234 220 207 208 210 208 211 217 222 224 224 223 224 227 227 227 231 236 239 238 237 239 243 244 242 241
335 333 331 328 327 326 326 326 325 324 322 320 318 315 312 311 311 310 310 313 317 317 314 309 304 301 300 300 301 302 300 297 294 293 293 295 296 297 295 293 290 288 286 281 277 274 266 257 253 253 249 243 244 248 247 251 258 248 231 218 202 196 205 209 207 210 216 220 220 219 220 222 224 226 227 231 235 237 236 236 240 242 241 240 242
333 331 329 327 326 325 325 324 323 321 320 319 318 316 312 309 309 310 311 314 317 316 312 307 303 301 303 304 305 304 301 298 297 297 298 299 299 297 294 290 287 284 281 279 278 274 269 260 253 250 247 240 237 241 244 246 251 247 230 214 202 199 206 209 208 210 215 219 220 219 219 220 222 224 228 230 233 235 235 237 240 240 238 239 244
331 329 327 326 325 325 324 323 321 319 318 318 317 316 312 310 309 310 312 315 316 314 310 305 302 303 306 308 307 304 301 301 302 302 302 301 300 298 293 289 287 285 283 284 284 281 277 265 250 244 245 241 236 238 242 243 247 248 231 208 199 200 203 203 206 211 216 220 222 221 221 221 221 224 227 229 230 233 236 240 243 242 240 242 247
329 327 326 326 327 326 324 323 322 320 319 319 318 316 312 309 309 311 313 314 314 313 309 305 304 308 310 308 305 303 305 307 308 306 304 304 304 300 295 293 291 290 292 295 295 292 284 262 241 237 242 242 237 237 237 238 247 250 223 197 192 197 198 199 204 212 218 223 224 223 224 224 222 223 226 228 230 233 238 243 247 247 247 246 248
330 329 328 328 328 328 326 324 322 321 320 319 320 318 313 309 310 312 314 314 314 312 309 307 308 312 311 307 305 307 311 313 313 310 308 309 308 305 304 302 301 302 305 305 303 299 281 240 226 233 243 242 237 236 235 237 248 244 209 191 189 191 192 197 205 210 216 221 223 225 227 226 223 224 228 231 233 235 240 244 246 249 250 249 249
332 332 331 330 328 327 326 324 322 320 319 317 319 320 315 310 311 314 315 315 314 312 310 310 313 313 308 306 310 315 318 320 318 314 314 317 328 339 334 321 315 313 311 306 315 347 332 279 253 253 250 241 237 237 237 240 248 232 197 185 187 190 194 200 205 206 209 211 215 220 224 225 225 227 231 234 236 238 243 246 247 248 250 249 251
334 333 332 330 329 328 327 325 322 320 318 316 318 320 316 310 310 314 316 314 313 311 311 314 316 311 308 311 317 321 327 330 326 324 343 42 36 12 353 336 327 325 304 293 315 329 333 331 302 267 256 247 239 235 233 235 242 222 193 185 189 194 200 204 204 205 206 205 204 210 216 220 224 227 230 233 234 237 240 243 244 246 248 250 254
333 333 332 331 330 329 327 325 322 319 317 315 315 318 316 310 309 314 316 313 312 312 314 318 317 313 314 319 323 328 338 342 344 38 87 67 27 10 1 350 353 356 342 338 337 339 344 350 329 280 263 244 231 224 216 212 218 207 190 187 193 198 201 203 203 205 208 208 207 208 212 216 220 222 225 227 229 232 235 238 242 247 250 253 255
334 333 332 331 330 329 327 324 320 317 315 313 313 315 314 309 308 313 315 312 312 313 316 319 319 320 322 324 329 339 350 7 80 104 86 42 23 23 36 88 39 27 22 19 12 4 360 353 325 273 155 157 164 174 175 173 185 192 192 194 199 203 206 206 204 203 204 206 209 210 210 211 213 216 221 223 226 232 238 242 247 250 252 253 254
334 334 333 331 330 329 327 324 320 316 313 310 310 312 312 307 307 313 314 312 313 316 319 322 325 326 326 328 339 352 22 105 119 108 62 44 50 65 87 46 28 25 26 28 28 22 9 322 205 155 150 144 136 146 171 175 177 188 198 201 201 201 202 202 202 201 200 199 201 203 203 206 210 214 219 224 231 238 244 249 251 253 254 255 256
335 335 334 333 332 332 330 327 324 321 316 310 308 312 312 307 308 315 313 311 316 320 321 327 332 330 328 336 11 31 114 131 126 93 56 58 64 62 41 19 8 7 14 24 31 29 13 216 188 164 156 149 144 162 199 209 192 187 193 194 191 190 191 191 189 187 184 184 188 194 199 205 211 216 222 230 238 244 249 253 255 256 257 257 257
337 337 336 336 336 336 334 332 330 327 322 314 311 314 313 308 313 319 315 313 320 327 325 335 340 334 330 89 108 121 144 148 138 93 85 84 84 68 35 11 3 9 15 21 27 32 64 196 192 177 164 158 158 171 198 208 191 177 175 173 170 167 168 170 170 170 173 179 186 193 200 206 212 218 226 235 244 249 251 252 253 253 253 251 250
339 339 339 340 341 340 338 337 336 335 332 326 320 321 321 318 322 323 317 316 326 338 335 347 349 338 331 142 138 146 163 178 189 119 88 90 95 68 20 10 11 11 9 6 10 26 69 172 190 189 181 175 172 170 169 164 158 159 160 158 156 155 157 162 169 174 179 185 188 193 201 206 213 221 229 236 242 246 248 247 246 245 245 245 246
343 343 345 346 346 345 344 344 345 347 348 342 335 334 335 334 333 328 320 318 331 344 343 358 358 347 246 155 149 153 173 199 209 197 39 39 50 26 1 17 15 7 358 345 339 356 34 77 154 174 175 173 171 166 159 151 151 157 160 159 159 162 167 171 177 183 186 188 188 194 202 209 215 222 228 233 238 242 245 245 243 243 243 244 246